This is the latest recevied weather packets stored in our database for station/object VA6BAX-13. If no packets are shown the sender has not sent any weather packets the latest 10 day(s).
| Time | Temp. | Humidity | Pressure | Rain* | Wind** | Luminosity | Snow |
|---|---|---|---|---|---|---|---|
| 1788357437 | 13.89° C | 86% | 1005.3 hPa | - | - | - | - |
| 1788357409 | 13.89° C | 86% | 1005.3 hPa | - | - | - | - |
| 1788356838 | 13.89° C | 85% | 1005.3 hPa | - | - | - | - |
| 1788356809 | 13.89° C | 85% | 1005.3 hPa | - | - | - | - |
| 1788356209 | 13.33° C | 84% | 1005.3 hPa | - | - | - | - |
| 1788355609 | 13.33° C | 85% | 1005.3 hPa | - | - | - | - |
| 1788355038 | 13.33° C | 85% | 1005.4 hPa | - | - | - | - |
| 1788355010 | 13.33° C | 84% | 1005.5 hPa | - | - | - | - |
| 1788354437 | 13.33° C | 83% | 1005.5 hPa | - | - | - | - |
| 1788354409 | 13.33° C | 83% | 1005.5 hPa | - | - | - | - |
| 1788353837 | 13.89° C | 80% | 1005.3 hPa | - | - | - | - |
| 1788353809 | 13.89° C | 79% | 1005.3 hPa | - | - | - | - |
| 1788353237 | 14.44° C | 79% | 1004.7 hPa | - | - | - | - |
| 1788353228 | 14.44° C | 79% | 1004.7 hPa | - | - | - | - |
| 1788352637 | 13.89° C | 80% | 1004.3 hPa | - | - | - | - |
| 1788352009 | 13.89° C | 80% | 1004.1 hPa | - | - | - | - |
| 1788351437 | 13.33° C | 80% | 1004.3 hPa | - | - | - | - |
| 1788351409 | 13.89° C | 81% | 1004.3 hPa | - | - | - | - |
| 1788350809 | 13.33° C | 81% | 1004.4 hPa | - | - | - | - |
| 1788350210 | 12.78° C | 83% | 1004.3 hPa | - | - | - | - |
| 1788349637 | 12.22° C | 84% | 1004.2 hPa | - | - | - | - |
| 1788349609 | 12.22° C | 85% | 1004.1 hPa | - | - | - | - |
| 1788349009 | 12.22° C | 84% | 1004.2 hPa | - | - | - | - |
| 1788348409 | 12.78° C | 83% | 1004.1 hPa | - | - | - | - |
| 1788347809 | 13.33° C | 81% | 1004.1 hPa | - | - | - | - |
* Rain since midnight (hover to see other rain measurements)
** Current wind speed in m/s (hover to see current wind gust speed)